Lakefront Airport New Orleans US
ICAO: KNEW
IATA: NEW
Category: Medium
Scheduled Services: No

Elevation: 8 ft
TransAlt. 18000 ft.

Airport Communications:
NEW ORLEANS APP/DEP:123.85
ATIS:124.9
CLNC DEL:119.9
CTAF:119.9
GND:121.7
ARNG OPS:141.35
DE RIDDER RDO:122.6
TWR:119.9
UNICOM:122.95

KNEW Zoom In..

If you have problems with the map follow the link
https://www.worldairports.se/pages/airport.php?
ICAO=KNEW

Runways:

(A) RW 09 length 3114 ft width 75 ft
---- / hdg 87

(B) RW 18L length 3697 ft width 75 ft
---- / hdg 177

(C) RW 18R length 6879 ft width 150 ft
ILS 111.30 / hdg 177

(D) RW 27 length 3114 ft width 75 ft
---- / hdg 267

(E) RW 36L length 6879 ft width 150 ft
---- / hdg 357

(F) RW 36R length 3697 ft width 75 ft
---- / hdg 357

Location; KNEW
Day. 18 / Time. 21.53 Zulu
* Altimeter: 30.01
* Temperature: 16° c. 60.8°f.
* Wind from: 050° Speed 06 kn.
Dewpoint: 13° c.
Visibility: 3 Statute Miles.
Clouds: Broken 4400 ft.
Conditions: Mist.

KNEW 182153Z AUTO 05006KT 3SM BR BKN044 16/13 A3001 RMK AO2 SLP155 T01560133


Wind From 050°
Speed 06 kn.

 
 
jpsmedia.com for Web Design worldairports.se 2019   terms of use